Regional Weather Roundup
Issued by NWS

Home | Current Version | Previous Version | Graphics & Text | Print | Product List | Glossary On
Versions: 1 2 3 4 5 6 7 8 9 10 11 12 13 14 15 16 17 18 19 20 21 22 23 24 25 26 27 28 29 30 31 32 33 34 35 36 37 38 39 40 41 42 43 44 45 46 47 48 49 50
000
ASUS44 KMEG 272110
RWRTN
TENNESSEE HOURLY STATE WEATHER ROUNDUP
NATIONAL WEATHER SERVICE MEMPHIS TN
300 PM CST THU NOV 27 2014

TNZ002-004-019-021-049-052-054-088>092-272200-
WEST TENNESSEE

CITY           SKY/WX    TMP DP  RH WIND       PRES   REMARKS
MEMPHIS INTL   MOSUNNY   45  28  51 N7        30.46F
NWS MEMPHIS      N/A     45 N/A N/A MISG        N/A
JACKSON        CLOUDY    38  27  64 N9        30.47S WCI  31
DYERSBURG      PTSUNNY   37  19  48 N9        30.50R WCI  31
UNION CITY     CLOUDY    32  27  80 N12       30.48R WCI  23
PARIS          CLOUDY    30  21  69 N7        30.46S WCI  23
HUNTINGDON     CLOUDY    32  24  72 NW9       30.47R WCI  24
LEXINGTON      CLOUDY    36  25  64 NW10      30.43F WCI  28
SAVANNAH       CLOUDY    37  25  60 NW9       30.45R WCI  31
$$

TNZ008-025-027-028-033-062-065-066-272200-
NORTH MIDDLE TENNESSEE

CITY           SKY/WX    TMP DP  RH WIND       PRES   REMARKS
NASHVILLE      PTSUNNY   37  23  56 NW12      30.43R WCI  29
CLARKSVILLE    CLOUDY    34  21  59 NW16      30.45R WCI  24
COOKEVILLE     PTSUNNY   34  27  75 VRB7      30.36R WCI  28
CROSSVILLE     CLOUDY    32  24  72 NW12      30.32R WCI  23
$$

TNZ061-075-076-078-094-096-097-272200-
SOUTH MIDDLE TENNESSEE

CITY           SKY/WX    TMP DP  RH WIND       PRES   REMARKS
FAYETTEVILLE   CLOUDY    37  25  60 MISG      30.37S
TULLAHOMA      CLOUDY    36  25  64 N12       30.38R WCI  27
WINCHESTER     CLOUDY    37  27  65 NW7       30.38R WCI  32
MCMINNVILLE    CLOUDY    36  25  64 NW3       30.37R
COLUMBIA       CLOUDY    37  28  70 VRB7      30.39S WCI  32
SHELBYVILLE    CLOUDY    37  27  65 NW8       30.40R WCI  31
$$

TNZ017-018-042-046-047-272200-
NORTHEAST TENNESSEE

CITY           SKY/WX    TMP DP  RH WIND       PRES   REMARKS
TRI CITIES     CLOUDY    36  28  73 W13       30.23R WCI  27
ELIZABETHTON   LGT RAIN  34  27  75 W8        30.22R WCI  27
$$

TNZ012-013-036-069-073-074-272200-
CENTRAL EAST TENNESSEE

CITY           SKY/WX    TMP DP  RH WIND       PRES   REMARKS
KNOXVILLE      PTSUNNY   37  27  67 W13       30.31R WCI  29
OAK RIDGE      CLOUDY    37  28  70 NW5       30.34R WCI  33
GATLINBURG     CLOUDY    36  28  75 NW7       30.29R WCI  30
MORRISTOWN     MOCLDY    36  28  75 NW12      30.28R WCI  27
$$

TNZ083-085-099-272200-
SOUTHEAST TENNESSEE

CITY           SKY/WX    TMP DP  RH WIND       PRES   REMARKS
CHATTANOOGA    PTSUNNY   41  26  55 NW14      30.36R
$$

SKY/WX REPORTED AS FAIR MEANS FEW OR NO CLOUDS BELOW
12 THOUSAND FEET.



USA.gov is the U.S. government's official web portal to all federal, state and local government web resources and services.